Location: Unspecified
(35.6961°N, 0.0000°E)
Time: 05:09:15
(UTC+00:00)

Explorer 11/Cluster Stage 4 - Pass Details

Date: 29 May 2019
Orbit: 467 x 1260 km, 28.8° (Epoch: 17 June)

Event Time Altitude Azimuth Distance (km) Brightness Sun altitude
Rises 02:30:14 0° 257° (WSW) 3,761 - -22.3°
Reaches altitude 10° 02:33:19 10° 251° (WSW) 2,676 - -21.9°
Exits shadow 02:38:49 41° 195° (SSW) 1,169 7.0 -21.2°
Maximum altitude 02:39:17 42° 182° (S) 1,140 7.0 -21.1°
Drops below altitude 10° 02:44:05 10° 112° (ESE) 2,149 9.0 -20.5°
Sets 02:46:19 0° 105° (ESE) 2,951 9.9 -20.2°
